Weather in Znamenka

Russia / Tambov Oblast     52°55′37″N   40°45′32″E
temp.,
°C
wind,
m/s
gust,
m/s
humid.,
%
clouds,
%
prec.,
mm/h
press.,
hPa
HPBL,
m
7 march, sun
sun700:00−12w47910 0.0 1017109
03:00−12w47930 0.0 1017105
06:00−13sw479647 0.0 1016119
09:00−9sw7139258 0.0 1013432
12:00−5sw101580100 0.0 1009996
15:00−3sw111879100 0.1 10041132
18:00−3sw101894100 0.5 10011195
21:00−2sw111890100 1.6 9981098
8 march, mon
mon800:00−3w81582100 1.1 9981030
03:00−7wsw5138368 1.1 1001327
06:00−9wsw511880 0.0 1001212
09:00−6sw5109333 0.1 1002482
12:00−3w71179100 0.1 10021444
15:00−3w6108194 0.3 10031033
18:00−6w5118684 0.1 1004454
21:00−10wnw349070 0.1 100861
9 march, tue
tue900:00−13wnw34920 0.0 100941
03:00−15nw23950 0.0 101024
06:00−15nw349677 0.0 101264
09:00−14nnw359586 0.0 1013194
12:00−11nw359195 0.0 1014362
15:00−10nw468896 0.0 1015608
18:00−13nw3693100 0.0 1016123
21:00−16nw469686 0.0 1019106
10 march, wed
wed1000:00−18nw349816 0.0 102078
03:00−19nw349951 0.0 102272
06:00−22nw369989 0.0 102386
09:00−21nnw479567 0.0 1025236
12:00−19nnw359236 0.0 1026311
15:00−17nnw358920 0.0 1026387
18:00−20nw33950 0.0 102722
21:00−22nnw23940 0.0 102920
11 march, thu
thu1100:00−23nw12940 0.0 102920
03:00−24nw11950 0.0 103120
06:00−24sw11920 0.0 103120
09:00−20ssw228915 0.0 103179
12:00−15ssw348218 0.0 1031222
15:00−13s468625 0.0 1030281
18:00−16s46900 0.0 102993
21:00−17s48890 0.0 1029126